Regional Weather Roundup
Issued by NWS

Home | Current Version | Previous Version | Text Only | Print | Product List | Glossary Off
Versions: 1 2 3 4 5 6 7 8 9 10 11 12 13 14 15 16 17 18 19 20 21 22 23 24 25 26 27 28 29 30 31 32 33 34 35 36 37 38 39 40 41 42 43 44 45 46 47 48 49 50

000
ASUS43 KLOT 192103
RWRIL

ILLINOIS REGIONAL WEATHER ROUNDUP
NATIONAL WEATHER SERVICE CHICAGO/ROMEOVILLE IL
300 PM CST THU JAN 19 2017

NOTE: "FAIR" INDICATES FEW OR NO CLOUDS BELOW 12,000 FEET WITH NO
SIGNIFICANT WEATHER AND/OR OBSTRUCTIONS TO VISIBILITY.

* THESE STATIONS ARE NOT UNDER NWS QUALITY CONTROL. THEY ALSO MAY NOT
  REPORT WEATHER SUCH AS PRECIPITATION OR FOG.

ILZ001-002-007-009-015-016-024-192200-
NORTHWEST ILLINOIS

CITY           SKY/WX    TMP DP  RH WIND       PRES   REMARKS
MOLINE         HVY RAIN  41  38  89 E8        29.81F FOG
STERLING*      MIX PCPN  36  35  96 E5        29.87S VSB 1   WCI  32
SAVANNA*       LGT RAIN  40  38  95 SE9       29.85F
$$

ILZ003-004-008-010-011-017-018-192200-
NORTH CENTRAL ILLINOIS

CITY           SKY/WX    TMP DP  RH WIND       PRES   REMARKS
ROCKFORD       CLOUDY    40  36  86 SE7       29.89F FOG
FREEPORT*      CLOUDY    37  37  98 E8        29.88S FOG     WCI  31
ROCHELLE*      RAIN      37  36  96 SE7       29.87S WCI  32
DE KALB*       CLOUDY    38  38  97 E6        29.87F FOG     WCI  34
$$

ILZ005-006-012>014-019>023-192200-
NORTHEAST ILLINOIS

CITY           SKY/WX    TMP DP  RH WIND       PRES   REMARKS
CHICAGO-OHARE  CLOUDY    41  36  82 E9        29.88F HAZE
CHICAGO-MIDWAY CLOUDY    41  35  79 E9        29.88F
AURORA         CLOUDY    41  37  86 E6        29.87F FOG
LANSING*       CLOUDY    40  38  95 E8        29.89F FOG
JOLIET*        CLOUDY    42  39  91 SE7       29.88F FOG
WAUKEGAN       FOG       36  34  92 SE8       29.90F VSB 1   WCI  30
DUPAGE AIRPORT PTSUNNY   42  35  76 E5        29.86F
KANKAKEE*      DRIZZLE   42  38  86 CALM      29.88F
WHEELING       PTSUNNY   41  35  79 E3        29.90F HAZE
MORRIS*        LGT RAIN  40  38  91 SE3       29.87S
ROMEOVILLE*    CLOUDY    40  39  96 E5        29.87F FOG
NORTHERLY ISL    N/A     35  33  92 CALM        N/A
$$

LMZ740>746-192200-
SOUTHERN LAKE MICHIGAN

STATION/POSITION SKY/WX   TEMP    WIND        PRES    VSBY  WAVE
                          AIR SEA DIR/SP/G                  HT/PER
                          (F)     (DEG/KT/KT) (MB)    (MI)  (FT/S)
HARRISON CRIB              37     120/ 12/ 12   N/A
BURNHAM HARBOR             35      CALM  /  3   N/A
CALUMET HARBOR             37      90/  4/  5 1012.3F
BURNS HARBOR               40     160/  3/  5 1013.5F
MICHIGAN CITY              40      90/  7/  8   N/A
$$

ILZ025>027-034>036-040-047-049-050-058-095>099-192200-
WEST-CENTRAL ILLINOIS

CITY           SKY/WX    TMP DP  RH WIND       PRES   REMARKS
QUINCY         CLOUDY    45  44  97 SE9       29.72F FOG
GALESBURG*     DRIZZLE   40  40 100 E8        29.78F
MACOMB*        LGT RAIN  42  42  99 E9        29.78F
JACKSONVILLE*  CLOUDY    43  43  97 E9        29.75F FOG
PITTSFIELD*    CLOUDY    45  44  97 E7        29.73F FOG
$$

ILZ028>032-037-038-041>044-048-051>054-059>061-192200-
CENTRAL ILLINOIS

CITY           SKY/WX    TMP DP  RH WIND       PRES   REMARKS
BLOOMINGTON    LGT RAIN  41  40  96 E9        29.82F FOG
DECATUR        CLOUDY    43  43 100 E14       29.78F
PEORIA         CLOUDY    42  41  96 E9        29.80F FOG
LACON*         CLOUDY    39  38  98 NE7       29.82F FOG     WCI  34
LINCOLN*       RAIN      44  43  98 E9        29.79F
SPRINGFIELD    LGT RAIN  45  43  93 E10       29.77F FOG
TAYLORVILLE    RAIN      43  42  97 E8        29.76F
$$

ILZ033-039-045-046-055>057-062-063-192200-
EAST-CENTRAL ILLINOIS

CITY           SKY/WX    TMP DP  RH WIND       PRES   REMARKS
CHAMPAIGN      HVY RAIN  42  40  92 E14       29.82F FOG
RANTOUL*       RAIN      43  41  95 E9        29.84F
MATTOON        CLOUDY    44  41  89 E9        29.79F
PARIS*         LGT RAIN  42  41  96 NE6       29.83F
$$

ILZ079-100>102-192200-
SOUTHWEST ILLINOIS

CITY           SKY/WX    TMP DP  RH WIND       PRES   REMARKS
BELLEVILLE     FOG       46  46 100 E5        29.73F VSB 3/4
CAHOKIA*       CLOUDY    48  45  89 E3        29.73F FOG
SPARTA*        CLOUDY    46  46  99 SE5       29.74F FOG
$$

ILZ064>066-069>071-074>076-080>082-084>086-088>090-092>094-192200-
SOUTH-CENTRAL ILLINOIS

CITY           SKY/WX    TMP DP  RH WIND       PRES   REMARKS
CARBONDALE     FOG       49  49 100 E3        29.73F VSB 3/4
CAIRO*         FOG       53  53 100 E6        29.72F VSB 1
EFFINGHAM*     CLOUDY    44  44 100 E8        29.80F FOG
MARION         FOG       50  50 100 CALM      29.75F VSB 3/4
MT. VERNON     LGT RAIN  46  45  96 E7        29.76F FOG
CENTRALIA*     DRIZZLE   47  47  99 E6        29.74F
SALEM*         CLOUDY    47  45  92 E8        29.76F FOG
METROPOLIS*    CLOUDY    54  53  98 CALM      29.74F FOG
$$

ILZ067-068-072-073-078-083-087-091-192200-
SOUTHEAST ILLINOIS

CITY           SKY/WX    TMP DP  RH WIND       PRES   REMARKS
LAWRENCEVILLE  LGT RAIN  46  44  93 E7        29.81F
FLORA*         CLOUDY    46  45  96 E10       29.77F FOG
FAIRFIELD*     RAIN      46  46  99 E6        29.76F
HARRISBURG*    CLOUDY    49  49  99 E6        29.75F FOG
ROBINSON*      LGT RAIN  45  43  94 E5        29.82F
CARMI*         CLOUDY    48  47  97 E8        29.76F FOG
$$

ABBREVIATIONS USED IN REMARKS
   TC - TEMPERATURE IN CELSIUS
  WCI - WIND CHILL INDEX
   HX - HEAT INDEX
  VSB - VISIBILITY
$$





USA.gov is the U.S. government's official web portal to all federal, state and local government web resources and services.